SHT8V EGLL-EGPH

Flight info

Callsign SHT8V
Flight time N/A
Altitude 32000
Route ULTIB1J ULTIB T420 TNT UN57 POL UN601 RIBEL DCT INPIP INPIP1E
Aircraft A320/M-SDE3FGHIRWY/LB1

Departure

Time N/A
Airport London Heathrow Airport (EGLL)

Arrival

Time 2026-04-21 20:39
Airport Edinburgh Airport (EGPH)
Time Latitude Longitude Altitude Speed Heading
2026-04-21 20:05 53.74172 -2.10193 32429 ft 385 kts 336°
2026-04-21 20:06 53.76672 -2.11814 32431 ft 385 kts 335°
2026-04-21 20:06 53.81646 -2.15198 32434 ft 385 kts 335°
2026-04-21 20:07 53.86610 -2.18658 32433 ft 386 kts 335°
2026-04-21 20:07 53.91589 -2.22087 32437 ft 387 kts 335°
2026-04-21 20:08 53.96583 -2.25503 32445 ft 387 kts 335°
2026-04-21 20:08 54.01579 -2.28929 32449 ft 387 kts 335°
2026-04-21 20:09 54.06577 -2.32372 32453 ft 388 kts 335°
2026-04-21 20:09 54.11582 -2.35845 32452 ft 389 kts 335°
2026-04-21 20:10 54.16602 -2.39333 32445 ft 390 kts 335°
2026-04-21 20:10 54.21631 -2.42831 32444 ft 391 kts 335°
2026-04-21 20:11 54.26686 -2.46350 32449 ft 392 kts 335°
2026-04-21 20:11 54.31750 -2.49885 32452 ft 393 kts 335°
2026-04-21 20:12 54.36822 -2.53449 32452 ft 395 kts 335°
2026-04-21 20:12 54.41910 -2.57021 32456 ft 396 kts 335°
2026-04-21 20:12 54.44460 -2.58817 32275 ft 394 kts 335°
2026-04-21 20:13 54.46990 -2.60601 32029 ft 391 kts 335°
2026-04-21 20:13 54.49498 -2.62369 31776 ft 388 kts 335°
2026-04-21 20:13 54.51963 -2.64110 31526 ft 386 kts 335°
2026-04-21 20:13 54.54439 -2.65863 31278 ft 384 kts 335°
2026-04-21 20:14 54.56901 -2.67607 31036 ft 382 kts 335°
2026-04-21 20:14 54.59353 -2.69341 30793 ft 380 kts 335°
2026-04-21 20:14 54.61797 -2.71075 30545 ft 379 kts 335°
2026-04-21 20:14 54.64227 -2.72803 30265 ft 378 kts 335°
2026-04-21 20:15 54.66659 -2.74542 29970 ft 378 kts 335°
2026-04-21 20:15 54.69065 -2.76266 29639 ft 372 kts 335°
2026-04-21 20:15 54.71453 -2.77974 29212 ft 369 kts 335°
2026-04-21 20:15 54.73815 -2.79662 28795 ft 367 kts 335°
2026-04-21 20:16 54.76168 -2.81349 28365 ft 365 kts 335°
2026-04-21 20:16 54.78509 -2.83027 27975 ft 363 kts 336°
2026-04-21 20:16 54.80839 -2.84697 27591 ft 361 kts 336°
2026-04-21 20:16 54.83156 -2.86360 27200 ft 359 kts 336°
2026-04-21 20:17 54.85453 -2.88013 26827 ft 356 kts 336°
2026-04-21 20:17 54.87736 -2.89658 26371 ft 355 kts 336°
2026-04-21 20:17 54.90060 -2.91337 25574 ft 367 kts 337°
2026-04-21 20:17 54.92433 -2.93055 25000 ft 370 kts 338°
2026-04-21 20:18 54.94008 -2.94195 24670 ft 371 kts 338°
2026-04-21 20:18 54.97200 -2.96508 24026 ft 372 kts 338°
2026-04-21 20:18 54.99588 -2.98243 23490 ft 371 kts 338°
2026-04-21 20:18 55.01963 -2.99969 22992 ft 370 kts 338°
2026-04-21 20:19 55.04336 -3.01697 22503 ft 368 kts 338°
2026-04-21 20:19 55.06691 -3.03415 22041 ft 367 kts 338°
2026-04-21 20:19 55.09035 -3.05124 21568 ft 365 kts 338°
2026-04-21 20:19 55.11376 -3.06831 21125 ft 363 kts 338°
2026-04-21 20:20 55.13697 -3.08526 20685 ft 361 kts 339°
2026-04-21 20:20 55.16010 -3.10216 20265 ft 359 kts 339°
2026-04-21 20:20 55.18306 -3.11899 19848 ft 357 kts 338°
2026-04-21 20:20 55.20593 -3.13581 19424 ft 355 kts 338°
2026-04-21 20:21 55.22855 -3.15246 18929 ft 353 kts 339°
2026-04-21 20:21 55.25122 -3.16912 18395 ft 352 kts 339°
2026-04-21 20:21 55.27372 -3.18566 17846 ft 349 kts 339°
2026-04-21 20:21 55.29609 -3.19783 17314 ft 336 kts 352°
2026-04-21 20:22 55.31891 -3.20104 16786 ft 324 kts
2026-04-21 20:22 55.36302 -3.19426 15762 ft 315 kts
2026-04-21 20:22 55.38478 -3.19084 15266 ft 315 kts
2026-04-21 20:23 55.40648 -3.18746 14748 ft 310 kts
2026-04-21 20:23 55.42790 -3.18416 14116 ft 307 kts
2026-04-21 20:23 55.44907 -3.18091 13442 ft 304 kts
2026-04-21 20:23 55.46996 -3.17766 12780 ft 300 kts
2026-04-21 20:24 55.49066 -3.17437 12121 ft 297 kts
2026-04-21 20:24 55.51112 -3.17112 11494 ft 294 kts
2026-04-21 20:24 55.53140 -3.16789 10870 ft 292 kts
2026-04-21 20:24 55.55156 -3.16471 10240 ft 290 kts
2026-04-21 20:25 55.57155 -3.16157 9571 ft 287 kts
2026-04-21 20:25 55.59135 -3.15846 8910 ft 284 kts
2026-04-21 20:25 55.61094 -3.15539 8302 ft 280 kts
2026-04-21 20:25 55.63013 -3.15239 7979 ft 274 kts
2026-04-21 20:26 55.64921 -3.14946 7671 ft 277 kts
2026-04-21 20:26 55.66806 -3.15407 7540 ft 274 kts 343°
2026-04-21 20:26 55.68410 -3.17151 7412 ft 272 kts 319°
2026-04-21 20:26 55.69478 -3.19865 7279 ft 270 kts 294°
2026-04-21 20:27 55.69841 -3.23098 7159 ft 270 kts 268°
2026-04-21 20:27 55.69481 -3.26303 7032 ft 269 kts 250°
2026-04-21 20:27 55.68905 -3.29460 6915 ft 269 kts 251°
2026-04-21 20:27 55.68330 -3.32617 6656 ft 269 kts 251°
2026-04-21 20:28 55.67759 -3.35759 6529 ft 268 kts 251°
2026-04-21 20:28 55.67187 -3.38905 6441 ft 268 kts 251°
2026-04-21 20:28 55.66617 -3.42036 6356 ft 268 kts 251°
2026-04-21 20:28 55.66036 -3.45218 6266 ft 268 kts 251°
2026-04-21 20:29 55.65462 -3.48350 6187 ft 268 kts 251°
2026-04-21 20:29 55.64960 -3.51508 6040 ft 265 kts 262°
2026-04-21 20:29 55.64997 -3.54647 5963 ft 253 kts 283°
2026-04-21 20:29 55.65585 -3.57520 5840 ft 239 kts 303°
2026-04-21 20:30 55.66561 -3.59752 5731 ft 228 kts 322°
2026-04-21 20:30 55.67733 -3.61626 5620 ft 227 kts 322°
2026-04-21 20:30 55.68902 -3.63506 5502 ft 227 kts 322°
2026-04-21 20:30 55.70091 -3.65331 5389 ft 226 kts 324°
2026-04-21 20:31 55.71300 -3.67093 5262 ft 225 kts 326°
2026-04-21 20:31 55.72515 -3.68843 5140 ft 224 kts 326°
2026-04-21 20:31 55.73706 -3.70559 5030 ft 216 kts 326°
2026-04-21 20:31 55.74851 -3.72215 4919 ft 210 kts 326°
2026-04-21 20:32 55.75960 -3.73897 4812 ft 210 kts 322°
2026-04-21 20:32 55.77074 -3.75543 4699 ft 206 kts 335°
2026-04-21 20:32 55.78374 -3.76464 4615 ft 198 kts 355°
2026-04-21 20:32 55.79716 -3.76580 4522 ft 190 kts 14°
2026-04-21 20:33 55.80956 -3.75968 4414 ft 182 kts 31°
2026-04-21 20:33 55.81990 -3.74756 4324 ft 175 kts 48°
2026-04-21 20:33 55.82745 -3.73091 4217 ft 172 kts 63°
2026-04-21 20:33 55.83371 -3.71271 4118 ft 172 kts 62°
2026-04-21 20:34 55.83997 -3.69455 4029 ft 172 kts 62°
2026-04-21 20:34 55.84410 -3.68254 3989 ft 172 kts 62°
2026-04-21 20:34 55.85034 -3.66438 3809 ft 171 kts 62°
2026-04-21 20:34 55.85652 -3.64639 3597 ft 170 kts 62°
2026-04-21 20:35 55.86266 -3.62851 3370 ft 169 kts 62°
2026-04-21 20:35 55.87060 -3.60534 3073 ft 163 kts 62°
2026-04-21 20:35 55.87456 -3.59377 2919 ft 161 kts 62°
2026-04-21 20:35 55.88219 -3.57151 2620 ft 157 kts 61°
2026-04-21 20:36 55.88600 -3.56035 2470 ft 155 kts 61°
2026-04-21 20:36 55.89145 -3.54440 2262 ft 151 kts 61°
2026-04-21 20:36 55.89670 -3.52905 2048 ft 138 kts 60°
2026-04-21 20:36 55.90149 -3.51504 1867 ft 128 kts 60°
2026-04-21 20:37 55.90607 -3.50162 1698 ft 125 kts 61°
2026-04-21 20:37 55.91054 -3.48850 1517 ft 123 kts 61°
2026-04-21 20:37 55.91495 -3.47554 1349 ft 122 kts 60°
2026-04-21 20:37 55.91938 -3.46255 1162 ft 122 kts 61°
2026-04-21 20:38 55.92378 -3.44962 979 ft 123 kts 60°
2026-04-21 20:38 55.92823 -3.43658 803 ft 123 kts 59°
2026-04-21 20:38 55.93266 -3.42359 625 ft 123 kts 60°
2026-04-21 20:38 55.93710 -3.41052 457 ft 124 kts 60°
2026-04-21 20:39 55.94155 -3.39736 283 ft 123 kts 60°
2026-04-21 20:39 55.94597 -3.38439 134 ft 122 kts 60°
2026-04-21 20:39 55.94960 -3.37365 112 ft 64 kts 59°
2026-04-21 20:39 55.95065 -3.37054 112 ft 19 kts 58°
2026-04-21 20:40 55.95159 -3.36775 114 ft 29 kts 58°
2026-04-21 20:40 55.95254 -3.36501 111 ft 20 kts 59°
2026-04-21 20:40 55.95224 -3.36385 114 ft 10 kts 145°
2026-04-21 20:40 55.95174 -3.36331 115 ft 7 kts 149°
2026-04-21 20:41 55.95123 -3.36316 115 ft 9 kts 217°
2026-04-21 20:41 55.95084 -3.36434 115 ft 13 kts 239°
2026-04-21 20:41 55.95032 -3.36587 114 ft 16 kts 239°
2026-04-21 20:41 55.94973 -3.36761 114 ft 16 kts 239°
2026-04-21 20:42 55.94904 -3.36813 114 ft 13 kts 149°
2026-04-21 20:42 55.94826 -3.36778 116 ft 12 kts 177°
2026-04-21 20:42 55.94753 -3.36745 112 ft 11 kts 155°
2026-04-21 20:42 55.94668 -3.36736 116 ft 13 kts 179°
2026-04-21 20:43 55.94614 -3.36718 113 ft 6 kts 127°
2026-04-21 20:43 55.94611 -3.36642 116 ft 5 kts 88°
2026-04-21 20:43 55.94612 -3.36617 116 ft 0 kts 87°